Weather observations for the past three days for
Grand Marais, The Bay of Grand Marais
Imperial (Metric)
Date Time (cdt) Wind (mph) Vis. (mi.) Weather Sky Cond. Temperature (ºF) Relative Humidity Wind Chill (°F) Heat Index (°F) Pressure Precipitation (in)
Air Dwpt 6 hour altimeter (in) sea level (mb) 1 hr 3 hr 6 hr
Max. Min.
23 01:56 Calm 0.00 NULL NULL 50 48 93% 29.79 1008.6
23 00:56 W 3 0.00 NULL NULL 51.1 48 55 48.9 89% 29.81 1009.4 0.01
22 23:56 W 5 0.00 NULL NULL 51.1 48 89% 29.83 1010.2
22 22:56 Calm 0.00 NULL NULL 54 50 87% 29.83 1010.0
22 21:56 Calm 0.00 NULL NULL 52 48.9 89% 29.82 1009.8 0.01
22 20:56 W 3 0.00 NULL NULL 50 46.9 89% 29.82 1010.0 0.01
22 19:56 E 3 0.00 NULL NULL 53.1 46.9 80% 29.82 1010.0
22 18:56 Calm 0.00 NULL NULL 53.1 46.9 63 50 80% 29.84 1010.5
22 17:56 E 3 0.00 NULL NULL 50 44.1 80% 29.84 1010.8
22 16:56 E 8 0.00 NULL NULL 52 45 77% 29.83 1010.4
22 15:56 E 9 0.00 NULL NULL 61 48 63% 29.86 1010.9
22 14:56 E 8 0.00 NULL NULL 60.1 45 58% 29.88 1011.7
22 13:56 E 10 0.00 NULL NULL 61 46 58% 29.88 1011.7
22 12:56 E 9 0.00 NULL NULL 57.9 48 60.1 52 70% 29.9 1012.5
22 11:56 E 12 0.00 NULL NULL 57 46.9 69% 29.91 1012.7
22 10:56 E 10 0.00 NULL NULL 57.9 46.9 67% 29.94 1013.9
22 09:56 E 9 0.00 NULL NULL 54 48 80% 29.98 1015.4
22 08:56 E 7 0.00 NULL NULL 53.1 46.9 80% 29.98 1015.2
22 07:56 E 5 0.00 NULL NULL 52 46.9 83% 29.97 1015.1
22 06:56 E 6 0.00 NULL NULL 53.1 46.9 54 50 80% 29.98 1015.1
22 05:56 E 6 0.00 NULL NULL 51.1 46 83% 29.99 1015.7
22 04:56 Calm 0.00 NULL NULL 51.1 46.9 86% 30 1016.0
22 03:56 Calm 0.00 NULL NULL 52 48 86% 30.02 1016.7
22 02:56 NE 3 0.00 NULL NULL 50 46.9 89% 30.05 1017.7
22 01:56 Calm 0.00 NULL NULL 51.1 46.9 86% 30.06 1018.1
22 00:56 Calm 0.00 NULL NULL 51.1 46.9 57.9 51.1 86% 30.07 1018.3
21 23:56 Calm 0.00 NULL NULL 52 48 86% 30.1 1019.3
21 22:56 Calm 0.00 NULL NULL 52 48 86% 30.09 1019.2
21 21:56 Calm 0.00 NULL NULL 54 50 87% 30.1 1019.3
21 20:56 SW 3 0.00 NULL NULL 54 51.1 90% 30.1 1019.5
21 18:56 Calm 0.00 NULL NULL 57 50 61 54 78% 30.14 1020.6
21 17:56 SW 3 0.00 NULL NULL 59 51.1 75% 30.14 1020.8
21 16:56 W 6 0.00 NULL NULL 61 52 72% 30.17 1021.6
21 15:56 SW 5 0.00 NULL NULL 60.1 51.1 72% 30.18 1021.9
21 14:56 SW 3 0.00 NULL NULL 57.9 50 75% 30.19 1022.3
21 13:56 SW 5 0.00 NULL NULL 55 46.9 74% 30.21 1023.2
21 12:56 Calm 0.00 NULL NULL 55 46.9 55 50 74% 30.21 1023.3
21 11:56 S 3 0.00 NULL NULL 53.1 46.9 80% 30.24 1024.3
21 10:56 S 3 0.00 NULL NULL 53.1 46.9 80% 30.25 1024.6
21 09:56 Calm 0.00 NULL NULL 52 46 80% 30.25 1024.6
21 08:56 Calm 0.00 NULL NULL 51.1 46 83% 30.26 1025.1
21 07:56 Calm 0.00 NULL NULL 50 46 86% 30.28 1025.4
21 06:56 Calm 0.00 NULL NULL 52 48 52 48.9 86% 30.26 1024.9
21 05:56 Calm 0.00 NULL NULL 50 48 93% 30.26 1024.8
21 04:56 Calm 0.00 NULL NULL 50 48 93% 30.27 1025.3
21 03:56 Calm 0.00 NULL NULL 51.1 48 89% 30.27 1025.2
21 02:56 Calm 0.00 NULL NULL 51.1 48 89% 30.29 1025.7
21 01:56 Calm 0.00 NULL NULL 50 48 93% 30.3 1026.0
21 00:56 Calm 0.00 NULL NULL 48.9 46 57 48 90% 30.3 1026.2
20 23:56 Calm 0.00 NULL NULL 48.9 46 90% 30.3 1026.3
20 22:56 Calm 0.00 NULL NULL 50 46.9 89% 30.32 1026.8
20 21:56 Calm 0.00 NULL NULL 51.1 46.9 86% 30.33 1027.4
20 20:56 Calm 0.00 NULL NULL 51.1 45 80% 30.33 1027.2
20 19:56 E 5 0.00 NULL NULL 53.1 45 74% 30.33 1027.2
20 18:56 E 3 0.00 NULL NULL 57 46 57.9 54 67% 30.34 1027.5
20 17:56 E 5 0.00 NULL NULL 55.9 46 70% 30.36 1028.0
20 16:56 E 5 0.00 NULL NULL 55.9 46 70% 30.39 1028.9
20 15:56 E 5 0.00 NULL NULL 55 45 69% 30.4 1029.6
20 14:56 E 5 0.00 NULL NULL 57 46 67% 30.4 1029.6
20 13:56 E 7 0.00 NULL NULL 55 46 72% 30.41 1030.0
20 12:56 E 6 0.00 NULL NULL 55.9 46.9 57.9 51.1 72% 30.43 1030.5
20 11:56 E 6 0.00 NULL NULL 55.9 46 70% 30.43 1030.5
20 10:56 NE 7 0.00 NULL NULL 54 46 75% 30.42 1030.4
20 09:56 NE 5 0.00 NULL NULL 52 45 77% 30.42 1030.3
20 08:56 Calm 0.00 NULL NULL 53.1 46 77% 30.42 1030.4
20 07:56 NE 3 0.00 NULL NULL 53.1 45 74% 30.41 1029.7
20 06:56 E 3 0.00 NULL NULL 54 45 59 51.1 72% 30.41 1029.7
20 05:56 Calm 0.00 NULL NULL 54 45 72% 30.41 1029.4
20 04:56 N 6 0.00 NULL NULL 57.9 45 62% 30.37 1028.1
20 03:56 N 7 0.00 NULL NULL 57 45 64% 30.36 1027.8
20 02:56 N 6 0.00 NULL NULL 55 46 72% 30.36 1027.6
Date Time (cdt) Wind (mph) Vis. (mi.) Weather Sky Cond. Air Dwpt Max. Min. Relative Humidity Wind Chill (°F) Heat Index (°F) altimeter (in) sea level (mb) 1 hr 3 hr 6 hr
6 hour
Temperature (ºF) Pressure Precipitation (in)